THOR ABLESTAR DEB, 3810

Orbit data source: Space-Track

THOR ABLESTAR DEB, 3810 is space debris in LEO originally from a launch on Fri, 13 Aug 1965 UTC launched from the Air Force Western Test Range (AFWTR). Debris objects in space refer to the collection of defunct objects orbiting the Earth. Examples of debris include non-operational satellites, rocket bodies, and fragments generated from explosions, collisions, or faulty payload assembly.

Loading next visibility...
Identifier
3810, 1965-065P
Orbit
LEO
Country
Flag of USUS
Related business
Manufacturer
Unknown
Mission
Spacecraft
Bus & Motor
Unknown
Mass
Unknown
Launch date (UTC)
1965-08-13 (61 years ago)
Launch vehicle
Unknown
Launch site
Air Force Western Test Range (AFWTR)
Object type
Payload
Rocket body
Debris
Shape & HBR
Unknown shape, 0.1 m
Radar Cross Section
Small (<0.1 m²)

Expand to show TLE details & history
Last TLE update: 10 hours ago

TLE from 10 hours ago
0 THOR ABLESTAR DEB
1 03810U 65065P   26106.88667153  .00000382  00000-0  55861-3 0  9994
2 03810  89.9972 216.0508 0062958 106.8126  28.8503 13.52150931250591
Epoch: 2026-04-16T21:16Z
TLE epoch observation values (Epoch: 2026-04-16T21:16:48.420Z)
Latitude
44.07462°
Longitude
-128.18142°
Altitude
1,030.031 km
Speed
7.361 km/s
True Right ascension
02h 24m 11s
True Declination
43° 54' 33"
Sunlit
Object was in daylight at epoch
Visualization orbit readout
Latitude
Unknown
Longitude
Unknown
Altitude
Unknown
Speed
Unknown
Apparent Right ascension
Unknown
Apparent Declination
Unknown
Sunlit
N/A
Visualization observer readout
Local Sidereal Time
13:44:16
Azimuth
Unknown
Elevation
Unknown
Doppler factor
Unknown
Orbital elements
Apogee altitude
1,108.24 km
Perigee altitude
1,014.564 km
Semi-major axis
7,439.539 km
Eccentricity
0.0063
Inclination
89.9972°
RAAN
216.0508°
Arg. of periapsis
106.8126°
True anomaly
29.20083°
Mean anomaly
28.8503°
Eccentric anomaly
29.02532°
Mean motion
3.38239 °/min
Orbital period
106.43 mins
BSTAR
0.00055861
Loading maneuver chart data...
Computing Atmospheric mass density...
Loading historical data...
Loading historical data...
Loading historical data...
Loading historical data...
Loading historical data...
Loading historical data...
Loading historical data...

Documentation

Showing up to 5 results
|